TimeCST,TemperatureF,Dew PointF,Humidity,Sea Level PressureIn,VisibilityMPH,Wind Direction,Wind SpeedMPH,Gust SpeedMPH,PrecipitationIn,Events,Conditions,WindDirDegrees,DateUTC
12:15 AM,17.6,15.8,93,30.37,10.0,NW,9.2,-,N/A,,Overcast,310,2013-03-06 06:15:00
12:35 AM,17.6,14.0,86,30.37,10.0,NW,10.4,-,N/A,,Overcast,310,2013-03-06 06:35:00
12:55 AM,17.6,14.0,86,30.37,10.0,NNW,9.2,-,N/A,,Overcast,330,2013-03-06 06:55:00
1:15 AM,17.6,14.0,86,30.38,10.0,WNW,10.4,-,N/A,,Overcast,300,2013-03-06 07:15:00
1:35 AM,17.6,15.8,93,30.39,10.0,WNW,8.1,-,N/A,,Overcast,300,2013-03-06 07:35:00
1:55 AM,17.6,14.0,86,30.39,10.0,NW,6.9,-,N/A,,Overcast,320,2013-03-06 07:55:00
2:15 AM,17.6,14.0,86,30.39,10.0,NW,9.2,-,N/A,,Overcast,310,2013-03-06 08:15:00
2:35 AM,15.8,12.2,86,30.39,10.0,WNW,9.2,-,N/A,,Overcast,300,2013-03-06 08:35:00
2:55 AM,15.8,12.2,86,30.38,10.0,NNW,9.2,-,N/A,,Overcast,340,2013-03-06 08:55:00
3:15 AM,15.8,12.2,86,30.39,10.0,NW,5.8,-,N/A,,Overcast,310,2013-03-06 09:15:00
3:35 AM,15.8,12.2,86,30.38,10.0,NW,6.9,-,N/A,,Overcast,310,2013-03-06 09:35:00
3:55 AM,15.8,14.0,93,30.38,10.0,NW,5.8,-,N/A,,Overcast,320,2013-03-06 09:55:00
4:15 AM,15.8,12.2,86,30.38,10.0,NNW,5.8,-,N/A,,Overcast,340,2013-03-06 10:15:00
4:35 AM,15.8,12.2,86,30.38,10.0,NNW,4.6,-,N/A,,Overcast,330,2013-03-06 10:35:00
4:55 AM,15.8,12.2,86,30.38,10.0,NNW,6.9,-,N/A,,Overcast,340,2013-03-06 10:55:00
5:15 AM,15.8,12.2,86,30.38,10.0,North,4.6,-,N/A,,Overcast,360,2013-03-06 11:15:00
5:35 AM,15.8,12.2,86,30.38,10.0,North,5.8,-,N/A,,Overcast,350,2013-03-06 11:35:00
5:55 AM,14.0,12.2,93,30.39,10.0,Calm,Calm,-,N/A,,Overcast,0,2013-03-06 11:55:00
6:15 AM,14.0,10.4,86,30.40,10.0,North,6.9,-,N/A,,Overcast,350,2013-03-06 12:15:00
6:35 AM,14.0,10.4,86,30.39,10.0,NNW,4.6,-,N/A,,Overcast,330,2013-03-06 12:35:00
6:55 AM,14.0,12.2,93,30.39,10.0,North,3.5,-,N/A,,Overcast,350,2013-03-06 12:55:00
7:15 AM,14.0,12.2,93,30.40,10.0,Calm,Calm,-,N/A,,Overcast,0,2013-03-06 13:15:00
7:35 AM,14.0,12.2,93,30.40,5.0,Calm,Calm,-,N/A,,Overcast,0,2013-03-06 13:35:00
7:55 AM,14.0,12.2,93,30.39,5.0,NE,5.8,-,N/A,,Overcast,50,2013-03-06 13:55:00
8:15 AM,14.0,10.4,86,30.40,4.0,North,4.6,-,N/A,,Overcast,350,2013-03-06 14:15:00
8:35 AM,14.0,10.4,86,30.40,4.0,Calm,Calm,-,N/A,,Overcast,0,2013-03-06 14:35:00
8:55 AM,14.0,10.4,86,30.40,3.0,NNE,4.6,-,N/A,,Overcast,20,2013-03-06 14:55:00
9:15 AM,14.0,12.2,93,30.40,3.0,ENE,5.8,-,N/A,,Overcast,60,2013-03-06 15:15:00
9:35 AM,15.8,12.2,86,30.40,3.0,Calm,Calm,-,N/A,,Overcast,0,2013-03-06 15:35:00
9:55 AM,15.8,12.2,86,30.40,2.0,Calm,Calm,-,N/A,,Overcast,0,2013-03-06 15:55:00
10:15 AM,15.8,12.2,86,30.40,4.0,Calm,Calm,-,N/A,,Overcast,0,2013-03-06 16:15:00
10:35 AM,15.8,15.8,100,30.39,3.0,East,3.5,-,N/A,,Overcast,100,2013-03-06 16:35:00
10:55 AM,15.8,12.2,86,30.39,5.0,Calm,Calm,-,N/A,,Overcast,0,2013-03-06 16:55:00
11:15 AM,17.6,12.2,79,30.40,5.0,ESE,4.6,-,N/A,,Overcast,120,2013-03-06 17:15:00
11:35 AM,15.8,12.2,86,30.39,7.0,ESE,3.5,-,N/A,,Overcast,110,2013-03-06 17:35:00
11:55 AM,17.6,12.2,79,30.38,9.0,ESE,5.8,-,N/A,,Mostly Cloudy,110,2013-03-06 17:55:00
12:15 PM,17.6,12.2,79,30.37,10.0,East,5.8,-,N/A,,Partly Cloudy,100,2013-03-06 18:15:00
12:35 PM,17.6,14.0,86,30.36,10.0,ESE,6.9,-,N/A,,Partly Cloudy,120,2013-03-06 18:35:00
12:55 PM,17.6,12.2,79,30.36,10.0,ESE,5.8,-,N/A,,Partly Cloudy,110,2013-03-06 18:55:00
1:15 PM,17.6,12.2,79,30.36,10.0,ESE,5.8,-,N/A,,Mostly Cloudy,110,2013-03-06 19:15:00
1:35 PM,17.6,12.2,79,30.35,10.0,ESE,6.9,-,N/A,,Overcast,110,2013-03-06 19:35:00
1:55 PM,17.6,12.2,79,30.34,10.0,SE,6.9,-,N/A,,Overcast,140,2013-03-06 19:55:00
2:15 PM,17.6,15.8,93,30.33,10.0,SE,5.8,-,N/A,,Overcast,130,2013-03-06 20:15:00
2:35 PM,19.4,14.0,80,30.32,10.0,ESE,8.1,-,N/A,,Overcast,110,2013-03-06 20:35:00
2:55 PM,19.4,15.8,86,30.32,10.0,SSE,6.9,-,N/A,,Overcast,160,2013-03-06 20:55:00
3:15 PM,19.4,15.8,86,30.31,10.0,ESE,4.6,-,N/A,,Overcast,120,2013-03-06 21:15:00
3:35 PM,19.4,15.8,86,30.31,10.0,ESE,10.4,-,N/A,,Overcast,110,2013-03-06 21:35:00
3:55 PM,19.4,15.8,86,30.30,9.0,ESE,11.5,-,N/A,,Overcast,120,2013-03-06 21:55:00
4:15 PM,19.4,15.8,86,30.29,7.0,ESE,10.4,-,N/A,,Mostly Cloudy,120,2013-03-06 22:15:00
4:35 PM,19.4,17.6,93,30.28,7.0,ESE,12.7,-,N/A,,Overcast,110,2013-03-06 22:35:00
4:55 PM,19.4,17.6,93,30.27,8.0,ESE,10.4,-,N/A,,Overcast,120,2013-03-06 22:55:00
5:15 PM,21.2,17.6,86,30.26,10.0,ESE,13.8,-,N/A,,Overcast,120,2013-03-06 23:15:00
5:35 PM,19.4,17.6,93,30.26,10.0,ESE,12.7,-,N/A,,Overcast,110,2013-03-06 23:35:00
5:55 PM,21.2,17.6,86,30.26,10.0,East,12.7,-,N/A,,Overcast,100,2013-03-06 23:55:00
6:15 PM,21.2,17.6,86,30.25,10.0,ESE,9.2,-,N/A,,Overcast,120,2013-03-07 00:15:00
6:35 PM,21.2,17.6,86,30.25,10.0,ESE,13.8,-,N/A,,Overcast,110,2013-03-07 00:35:00
6:55 PM,21.2,17.6,86,30.26,10.0,SE,12.7,-,N/A,,Overcast,130,2013-03-07 00:55:00
7:15 PM,21.2,17.6,86,30.25,10.0,SE,11.5,16.1,N/A,,Overcast,130,2013-03-07 01:15:00
7:35 PM,21.2,17.6,86,30.25,10.0,ESE,16.1,-,N/A,,Overcast,120,2013-03-07 01:35:00
7:55 PM,21.2,17.6,86,30.24,10.0,ESE,13.8,-,N/A,,Overcast,120,2013-03-07 01:55:00
8:35 PM,21.2,19.4,93,30.24,10.0,SE,15.0,-,N/A,,Overcast,130,2013-03-07 02:35:00
8:55 PM,21.2,17.6,86,30.24,10.0,SE,17.3,-,N/A,,Overcast,130,2013-03-07 02:55:00
9:35 PM,19.4,19.4,100,30.26,10.0,SE,15.0,-,N/A,,Overcast,140,2013-03-07 03:35:00
9:55 PM,19.4,19.4,100,30.26,10.0,ESE,11.5,-,N/A,,Overcast,120,2013-03-07 03:55:00
10:15 PM,19.4,17.6,93,30.26,10.0,SE,10.4,-,N/A,,Overcast,130,2013-03-07 04:15:00
10:35 PM,19.4,17.6,93,30.26,10.0,ESE,10.4,-,N/A,,Overcast,120,2013-03-07 04:35:00
10:55 PM,19.4,17.6,93,30.27,9.0,ESE,11.5,-,N/A,,Overcast,120,2013-03-07 04:55:00
11:15 PM,19.4,17.6,93,30.26,10.0,ESE,12.7,-,N/A,,Overcast,120,2013-03-07 05:15:00
11:35 PM,19.4,17.6,93,30.24,10.0,ESE,13.8,-,N/A,,Overcast,120,2013-03-07 05:35:00
11:55 PM,19.4,17.6,93,30.24,10.0,ESE,16.1,-,N/A,,Overcast,110,2013-03-07 05:55:00